Time,TemperatureF,DewpointF,PressureIn,WindDirection,WindDirectionDegrees,WindSpeedMPH,WindSpeedGustMPH,Humidity,HourlyPrecipIn,Conditions,Clouds,dailyrainin,SolarRadiationWatts/m^2,SoftwareType,DateUTC
2014-10-31 00:03:00,45.0,36.0,-100.00,SW,225,3.0,6.0,70,0.00,,,0.00,0.000000,,2014-10-31 05:03:00,
2014-10-31 00:12:00,45.0,36.0,-100.00,SW,225,3.0,6.0,70,0.00,,,0.00,0.000000,,2014-10-31 05:12:00,
2014-10-31 00:43:00,45.0,37.0,-100.00,SW,223,3.0,8.0,73,0.00,,,0.00,0.000000,,2014-10-31 05:43:00,
2014-10-31 00:53:00,45.0,37.0,-100.00,SW,223,3.0,8.0,73,0.00,,,0.00,0.000000,,2014-10-31 05:53:00,
2014-10-31 01:03:00,45.0,37.0,-100.00,SW,223,3.0,8.0,73,0.00,,,0.00,0.000000,,2014-10-31 06:03:00,
2014-10-31 01:12:00,45.0,37.0,-100.00,SW,223,3.0,8.0,73,0.00,,,0.00,0.000000,,2014-10-31 06:12:00,
2014-10-31 01:42:00,46.0,38.0,-100.00,SW,227,2.0,7.0,73,0.00,,,0.00,0.000000,,2014-10-31 06:42:00,
2014-10-31 01:52:00,46.0,38.0,-100.00,SW,227,2.0,7.0,73,0.00,,,0.00,0.000000,,2014-10-31 06:52:00,
2014-10-31 02:02:00,46.0,38.0,-100.00,SW,227,2.0,7.0,73,0.00,,,0.00,0.000000,,2014-10-31 07:02:00,
2014-10-31 02:12:00,46.0,38.0,-100.00,SW,227,2.0,7.0,73,0.00,,,0.00,0.000000,,2014-10-31 07:12:00,
2014-10-31 02:42:00,46.0,37.0,-100.00,West,271,2.0,8.0,72,0.00,,,0.00,0.000000,,2014-10-31 07:42:00,
2014-10-31 02:52:00,46.0,37.0,-100.00,West,271,2.0,8.0,72,0.00,,,0.00,0.000000,,2014-10-31 07:52:00,
2014-10-31 03:02:00,46.0,37.0,-100.00,West,271,2.0,8.0,72,0.00,,,0.00,0.000000,,2014-10-31 08:02:00,
2014-10-31 03:12:00,46.0,37.0,-100.00,West,271,2.0,8.0,72,0.00,,,0.00,0.000000,,2014-10-31 08:12:00,
2014-10-31 03:43:00,47.0,38.0,-100.00,NW,318,4.0,15.0,72,0.00,,,0.00,0.000000,,2014-10-31 08:43:00,
2014-10-31 03:52:00,47.0,38.0,-100.00,NW,318,4.0,15.0,72,0.00,,,0.00,0.000000,,2014-10-31 08:52:00,
2014-10-31 04:02:00,47.0,38.0,-100.00,NW,318,4.0,15.0,72,0.00,,,0.00,0.000000,,2014-10-31 09:02:00,
2014-10-31 04:12:00,47.0,38.0,-100.00,NW,318,4.0,15.0,72,0.00,,,0.00,0.000000,,2014-10-31 09:12:00,
2014-10-31 04:44:00,44.0,39.0,-100.00,NNW,341,7.0,18.0,82,0.02,,,0.02,0.000000,,2014-10-31 09:44:00,
2014-10-31 04:53:00,44.0,39.0,-100.00,NNW,341,7.0,18.0,82,0.02,,,0.02,0.000000,,2014-10-31 09:53:00,
2014-10-31 05:03:00,44.0,39.0,-100.00,NNW,341,7.0,18.0,82,0.02,,,0.02,0.000000,,2014-10-31 10:03:00,
2014-10-31 05:12:00,44.0,39.0,-100.00,NNW,341,7.0,18.0,82,0.02,,,0.02,0.000000,,2014-10-31 10:12:00,
2014-10-31 05:43:00,42.0,38.0,-100.00,North,354,7.0,18.0,84,0.01,,,0.03,0.000000,,2014-10-31 10:43:00,
2014-10-31 05:53:00,42.0,38.0,-100.00,North,354,7.0,18.0,84,0.01,,,0.03,0.000000,,2014-10-31 10:53:00,
2014-10-31 06:03:00,42.0,38.0,-100.00,North,354,7.0,18.0,84,0.01,,,0.03,0.000000,,2014-10-31 11:03:00,
2014-10-31 06:12:00,42.0,38.0,-100.00,North,354,7.0,18.0,84,0.01,,,0.03,0.000000,,2014-10-31 11:12:00,
2014-10-31 06:43:00,42.0,34.0,-100.00,NNW,343,7.0,21.0,72,0.04,,,0.07,0.000000,,2014-10-31 11:43:00,
2014-10-31 06:52:00,42.0,34.0,-100.00,NNW,343,7.0,21.0,72,0.04,,,0.07,0.000000,,2014-10-31 11:52:00,
2014-10-31 07:02:00,42.0,34.0,-100.00,NNW,343,7.0,21.0,72,0.04,,,0.07,0.000000,,2014-10-31 12:02:00,
2014-10-31 07:12:00,42.0,34.0,-100.00,NNW,343,7.0,21.0,72,0.04,,,0.07,0.000000,,2014-10-31 12:12:00,
2014-10-31 07:42:00,41.0,33.0,-100.00,NNW,337,8.0,23.0,74,0.01,,,0.08,0.000000,,2014-10-31 12:42:00,
2014-10-31 07:52:00,41.0,33.0,-100.00,NNW,337,8.0,23.0,74,0.01,,,0.08,0.000000,,2014-10-31 12:52:00,
2014-10-31 08:02:00,41.0,33.0,-100.00,NNW,337,8.0,23.0,74,0.01,,,0.08,0.000000,,2014-10-31 13:02:00,
2014-10-31 08:12:00,41.0,33.0,-100.00,NNW,337,8.0,23.0,74,0.01,,,0.08,0.000000,,2014-10-31 13:12:00,
2014-10-31 08:43:00,41.0,34.0,-100.00,NNW,332,7.0,24.0,77,0.00,,,0.08,10.000000,,2014-10-31 13:43:00,
2014-10-31 08:52:00,41.0,34.0,-100.00,NNW,332,7.0,24.0,77,0.00,,,0.08,10.000000,,2014-10-31 13:52:00,
2014-10-31 09:02:00,41.0,34.0,-100.00,NNW,332,7.0,24.0,77,0.00,,,0.08,10.000000,,2014-10-31 14:02:00,
2014-10-31 09:12:00,41.0,34.0,-100.00,NNW,332,7.0,24.0,77,0.00,,,0.08,10.000000,,2014-10-31 14:12:00,
2014-10-31 09:42:00,38.0,35.0,-100.00,NNE,20,11.0,27.0,88,0.05,,,0.13,37.000000,,2014-10-31 14:42:00,
2014-10-31 09:53:00,38.0,35.0,-100.00,NNE,20,11.0,27.0,88,0.05,,,0.13,37.000000,,2014-10-31 14:53:00,
2014-10-31 10:02:00,38.0,35.0,-100.00,NNE,20,11.0,27.0,88,0.05,,,0.13,37.000000,,2014-10-31 15:02:00,
2014-10-31 10:12:00,38.0,35.0,-100.00,NNE,20,11.0,27.0,88,0.05,,,0.13,37.000000,,2014-10-31 15:12:00,
2014-10-31 10:43:00,41.0,34.0,-100.00,North,353,9.0,30.0,77,0.01,,,0.14,46.000000,,2014-10-31 15:43:00,
2014-10-31 10:53:00,41.0,34.0,-100.00,North,353,9.0,30.0,77,0.01,,,0.14,46.000000,,2014-10-31 15:53:00,
2014-10-31 11:04:00,41.0,34.0,-100.00,North,353,9.0,30.0,77,0.01,,,0.14,46.000000,,2014-10-31 16:04:00,
2014-10-31 11:13:00,41.0,34.0,-100.00,North,353,9.0,30.0,77,0.01,,,0.14,46.000000,,2014-10-31 16:13:00,
2014-10-31 11:54:00,38.0,34.0,-100.00,NNW,338,10.0,32.0,86,0.02,,,0.16,136.000000,,2014-10-31 16:54:00,
2014-10-31 12:03:00,38.0,34.0,-100.00,NNW,338,10.0,32.0,86,0.02,,,0.16,136.000000,,2014-10-31 17:03:00,
2014-10-31 12:13:00,38.0,34.0,-100.00,NNW,338,10.0,32.0,86,0.02,,,0.16,136.000000,,2014-10-31 17:13:00,
2014-10-31 12:43:00,39.0,35.0,-100.00,North,2,13.0,34.0,87,0.09,,,0.25,42.000000,,2014-10-31 17:43:00,
2014-10-31 12:54:00,39.0,35.0,-100.00,North,2,13.0,34.0,87,0.09,,,0.25,42.000000,,2014-10-31 17:54:00,
2014-10-31 13:03:00,39.0,35.0,-100.00,North,2,13.0,34.0,87,0.09,,,0.25,42.000000,,2014-10-31 18:03:00,
2014-10-31 13:12:00,39.0,35.0,-100.00,North,2,13.0,34.0,87,0.09,,,0.25,42.000000,,2014-10-31 18:12:00,
2014-10-31 13:42:00,40.0,36.0,-100.00,North,1,12.0,36.0,87,0.07,,,0.32,67.000000,,2014-10-31 18:42:00,
2014-10-31 13:52:00,40.0,36.0,-100.00,North,1,12.0,36.0,87,0.07,,,0.32,67.000000,,2014-10-31 18:52:00,
2014-10-31 14:02:00,40.0,36.0,-100.00,North,1,12.0,36.0,87,0.07,,,0.32,67.000000,,2014-10-31 19:02:00,
2014-10-31 14:12:00,40.0,36.0,-100.00,North,1,12.0,36.0,87,0.07,,,0.32,67.000000,,2014-10-31 19:12:00,
2014-10-31 14:42:00,39.0,35.0,-100.00,North,7,14.0,34.0,87,0.00,,,0.32,103.000000,,2014-10-31 19:42:00,
2014-10-31 14:53:00,39.0,35.0,-100.00,North,7,14.0,34.0,87,0.00,,,0.32,103.000000,,2014-10-31 19:53:00,
2014-10-31 15:03:00,39.0,35.0,-100.00,North,7,14.0,34.0,87,0.00,,,0.32,103.000000,,2014-10-31 20:03:00,
2014-10-31 15:12:00,39.0,35.0,-100.00,North,7,14.0,34.0,87,0.00,,,0.32,103.000000,,2014-10-31 20:12:00,